This is the latest recevied weather packets stored in our database for station/object N1IJV-10. If no packets are shown the sender has not sent any weather packets the latest 10 day(s).
| Time | Temp. | Humidity | Pressure | Rain* | Wind** | Luminosity | Snow |
|---|---|---|---|---|---|---|---|
| 1777291261 | 13.33° C | 85% | 1010.8 hPa | 0 mm | - | 21 W/m² | - |
| 1777290957 | 13.33° C | 85% | 1010.8 hPa | 0 mm | - | 19 W/m² | - |
| 1777290655 | 13.33° C | 85% | 1010.8 hPa | 0 mm | - | 20 W/m² | - |
| 1777290351 | 13.33° C | 85% | 1010.9 hPa | 0 mm | - | 18 W/m² | - |
| 1777290047 | 13.33° C | 85% | 1010.9 hPa | 0 mm | - | 12 W/m² | - |
| 1777289743 | 13.33° C | 85% | 1010.9 hPa | 0 mm | - | 10 W/m² | - |
| 1777289439 | 13.33° C | 85% | 1010.9 hPa | 0 mm | - | 4 W/m² | - |
| 1777289136 | 13.33° C | 85% | 1010.9 hPa | 0 mm | - | 4 W/m² | - |
| 1777288833 | 13.33° C | 85% | 1010.6 hPa | 0 mm | - | 4 W/m² | - |
| 1777288529 | 13.33° C | 84% | 1010.8 hPa | 0 mm | - | 3 W/m² | - |
| 1777288226 | 13.33° C | 84% | 1011 hPa | 0 mm | - | 0 W/m² | - |
| 1777287922 | 13.33° C | 84% | 1010.9 hPa | 0 mm | - | 0 W/m² | - |
| 1777287619 | 13.33° C | 84% | 1011.3 hPa | 0 mm | - | 0 W/m² | - |
| 1777287315 | 13.33° C | 84% | 1011.2 hPa | 0 mm | - | 0 W/m² | - |
| 1777287012 | 13.33° C | 85% | 1011.2 hPa | 0 mm | - | 0 W/m² | - |
| 1777286709 | 13.33° C | 85% | 1011.2 hPa | 0 mm | - | 0 W/m² | - |
| 1777286407 | 13.33° C | 85% | 1011.2 hPa | 0 mm | - | 0 W/m² | - |
| 1777286103 | 13.33° C | 85% | 1011.2 hPa | 0 mm | - | 0 W/m² | - |
| 1777285801 | 13.33° C | 85% | 1011.2 hPa | 0 mm | - | 0 W/m² | - |
| 1777285498 | 13.33° C | 85% | 1011.4 hPa | 0 mm | - | 0 W/m² | - |
| 1777285195 | 13.33° C | 85% | 1011.4 hPa | 0 mm | - | 0 W/m² | - |
| 1777284892 | 12.78° C | 85% | 1011.1 hPa | 0 mm | - | 0 W/m² | - |
| 1777284589 | 13.33° C | 85% | 1011.2 hPa | 0 mm | - | 0 W/m² | - |
| 1777284286 | 13.33° C | 85% | 1011 hPa | 0 mm | - | 0 W/m² | - |
| 1777283983 | 12.78° C | 85% | 1011.1 hPa | 0 mm | - | 0 W/m² | - |
* Rain latest hour (hover to see other rain measurements)
** Current wind speed in m/s (hover to see current wind gust speed)